Pagina principală
METAR-TAF:

METAR-TAF

Aeroporturi :

Tena, Ecuador

Latitudine: 01-03-35S, longitudine: 77-35-00W, elevație: 376 m

Observații meteo curente

Raportul a fost făcut în urmă cu 11 ore și 59 de minute, la 21:00 UTC
Vânt 4 kt de la Nord-est
Temperatură 29°C
Umiditate 74%
Presiune 1011 hPa
Vizibilitate de 10 km sau mai mult
Nori puțini la o înălțime de 2300 picior
Nori împrăștiați la o înălțime de 10000 picior

METAR: SEJD 132100Z 05004KT 9999 FEW023 SCT100 29/24 Q1011 RMK A2986

Ora: 03:59 (08:59 UTC)


TAF: lipsă

Observații și prognoze meteo pentru peste 4.000 de aeroporturi (rapoarte METAR și TAF).

Stațiile disponibile sunt reprezentate pe hartă prin puncte galbene și roșii.

Țineți indicatorul mouse-ului pe punctul dorit pentru a vedea denumirea stației.

Apoi, faceți clic pentru a vedea observațiile și prognozele meteorologice.

Pentru a schimba harta: Pentru mărire, faceți clic pe butoanele verzi cu cruce neagră; pentru micșorare, pe butonul verde cu o liniuță; pentru hărți învecinate, pe săgețile verzi.


METAR-TAF: